Weather History for KELM - September, 2013

Change the Weather History Date:

Thursday, September 12, 2013

  Actual Average Record
Temperature  
Mean Temperature 72 °F -  
Max Temperature 82 °F 74 °F 98 °F (1952)
Min Temperature 63 °F 48 °F 33 °F (1967)
Cooling Degree Days 6    
Growing Degree Days 22 (Base 50)    
Moisture  
Dew Point 65 °F    
Average Humidity 90    
Maximum Humidity 100    
Minimum Humidity 61    
Precipitation  
Precipitation 0.25 in - - ()
Sea Level Pressure  
Sea Level Pressure 29.85 in    
Wind  
Wind Speed 2 mph (WSW)    
Max Wind Speed 24 mph    
Max Gust Speed 39 mph    
Visibility 4 miles    
Events Fog , Rain , Thunderstorm    
Averages and records for this station are not official NWS values.
T = Trace of Precipitation, MM = Missing Value Source: NWS Daily Summary

Daily Weather History Graph

Daily Weather History Graph

Search for Another Location

Airport or City:

Trip Planner

Search our weather history database for the weather conditions in past years. The results will help you decide how hot, cold, wet, or windy it might be!

Date:

Astronomy

Sep. 12, 2013 Rise Set
Actual Time 6:44 AM EDT 7:22 PM EDT
Civil Twilight 6:16 AM EDT 7:50 PM EDT
Nautical Twilight 5:43 AM EDT 8:23 PM EDT
Astronomical Twilight 5:08 AM EDT 8:57 PM EDT
Moon 2:17 PM EDT (9/12) No Moon Set
Length of Visible Light 13h 33m
Length of Day
12h 37m
Waxing Crescent, 50% of the Moon is Illuminated
Sep 12
Waxing Crescent
Sep 12
First Quarter
Sep 19
Full
Sep 26
Last Quarter
Oct 4
New

Hourly Weather History & Observations

Time (EDT) Temp. Heat Index Dew Point Humidity Pressure Visibility Wind Dir Wind Speed Gust Speed Precip Events Conditions
12:25 AM 66.2 °F - 64.4 °F 94% 29.96 in 2.0 mi WNW 4.6 mph - N/A   Clear
12:39 AM 66.2 °F - 64.4 °F 94% 29.96 in 0.8 mi Calm Calm - N/A   Clear
12:53 AM 66.9 °F - 64.9 °F 93% 29.94 in 0.8 mi Calm Calm - N/A   Mist
1:17 AM 64.4 °F - 64.4 °F 100% 29.96 in 0.2 mi Calm Calm - N/A Fog Fog
1:34 AM 66.2 °F - 64.4 °F 94% 29.96 in 0.8 mi Calm Calm - N/A   Mist
1:42 AM 66.2 °F - 64.4 °F 94% 29.96 in 1.8 mi Calm Calm - N/A   Mostly Cloudy
1:47 AM 66.2 °F - 64.4 °F 94% 29.96 in 3.0 mi Calm Calm - N/A   Mostly Cloudy
1:53 AM 66.9 °F - 64.9 °F 93% 29.94 in 2.5 mi Calm Calm - N/A   Mostly Cloudy
1:55 AM 66.2 °F - 64.4 °F 94% 29.95 in 1.5 mi Calm Calm - N/A   Scattered Clouds
1:57 AM 66.2 °F - 64.4 °F 94% 29.95 in 0.8 mi Calm Calm - N/A   Mist
2:08 AM 64.4 °F - 64.4 °F 100% 29.96 in 0.2 mi NNW 4.6 mph - N/A Fog Fog
2:17 AM 66.2 °F - 64.4 °F 94% 29.96 in 1.0 mi Calm Calm - N/A   Mostly Cloudy
2:34 AM 66.2 °F - 64.4 °F 94% 29.96 in 2.0 mi SSW 5.8 mph - N/A   Mostly Cloudy
2:40 AM 66.2 °F - 64.4 °F 94% 29.95 in 3.0 mi SW 3.5 mph - N/A   Mostly Cloudy
2:49 AM 66.2 °F - 64.4 °F 94% 29.95 in 1.8 mi NW 4.6 mph - N/A   Scattered Clouds
2:53 AM 66.0 °F - 64.9 °F 96% 29.93 in 0.8 mi WNW 3.5 mph - N/A   Mist
3:22 AM 66.2 °F - 64.4 °F 94% 29.94 in 0.2 mi Calm Calm - 0.01 in Fog Fog
3:48 AM 64.4 °F - 62.6 °F 94% 29.94 in 0.5 mi Calm Calm - 0.01 in Fog Fog
3:49 AM 64.9 °F - 63.0 °F 93% 29.92 in 0.5 mi Calm Calm - 0.01 in Fog Fog
3:56 AM 66.2 °F - 64.4 °F 94% 29.93 in 1.2 mi Calm Calm - N/A   Partly Cloudy
4:00 AM 66.2 °F - 64.4 °F 94% 29.93 in 0.8 mi Calm Calm - N/A   Mist
4:06 AM 64.4 °F - 62.6 °F 94% 29.93 in 0.2 mi Calm Calm - N/A Fog Fog
4:43 AM 64.4 °F - 62.6 °F 94% 29.92 in 0.2 mi Calm Calm - N/A Fog Fog
4:53 AM 64.0 °F - 63.0 °F 96% 29.91 in 0.2 mi Calm Calm - N/A Fog Fog
5:53 AM 63.0 °F - 62.1 °F 97% 29.90 in 0.2 mi Calm Calm - N/A Fog Fog
6:53 AM 63.0 °F - 62.1 °F 97% 29.90 in 0.2 mi Calm Calm - N/A Fog Fog
7:53 AM 64.9 °F - 63.0 °F 93% 29.90 in 0.2 mi Calm Calm - N/A Fog Fog
8:21 AM 64.4 °F - 64.4 °F 100% 29.90 in 0.2 mi Calm Calm - N/A Fog Fog
8:40 AM 66.2 °F - 64.4 °F 94% 29.90 in 0.8 mi Calm Calm - N/A   Overcast
8:53 AM 66.9 °F - 64.9 °F 93% 29.88 in 2.0 mi Calm Calm - N/A   Overcast
9:00 AM 66.2 °F - 64.4 °F 94% 29.89 in 4.0 mi Calm Calm - N/A   Overcast
9:49 AM 71.6 °F - 66.2 °F 83% 29.88 in 4.0 mi Calm Calm - N/A   Overcast
9:53 AM 71.1 °F - 66.9 °F 87% 29.87 in 4.0 mi Calm Calm - N/A   Overcast
10:53 AM 75.0 °F - 69.1 °F 82% 29.85 in 5.0 mi South 3.5 mph - N/A   Haze
11:17 AM 75.2 °F - 69.8 °F 83% 29.86 in 5.0 mi Calm Calm - N/A   Haze
11:53 AM 77.0 °F - 69.1 °F 76% 29.83 in 5.0 mi SW 5.8 mph - N/A   Haze
12:46 PM 78.8 °F - 69.8 °F 74% 29.82 in 3.0 mi WSW 8.1 mph - 0.01 in Rain Heavy Rain
12:53 PM 79.0 °F - 71.1 °F 77% 29.80 in 5.0 mi South 5.8 mph - 0.01 in Rain Light Rain
1:00 PM 80.6 °F 83.9 °F 69.8 °F 70% 29.81 in 6.0 mi South 6.9 mph - 0.00 in   Haze
1:46 PM 80.6 °F 82.7 °F 66.2 °F 61% 29.79 in 9.0 mi WSW 9.2 mph - 0.00 in Thunderstorm Mostly Cloudy
1:53 PM 79.0 °F - 66.0 °F 64% 29.78 in 9.0 mi NW 13.8 mph 19.6 mph 0.00 in Thunderstorm Thunderstorm
2:05 PM 75.2 °F - 60.8 °F 61% 29.78 in 5.0 mi NW 24.2 mph 39.1 mph 0.02 in Rain , Thunderstorm Light Thunderstorms and Rain
2:53 PM - - - N/A% 29.79 in 7.0 mi WSW 6.9 mph - 0.03 in Rain , Thunderstorm Light Rain
3:00 PM - - - N/A% 29.78 in 1.8 mi West 9.2 mph - 0.07 in Rain , Thunderstorm Heavy Rain
3:10 PM - - - N/A% 29.77 in 3.0 mi Calm Calm - 0.09 in Rain , Thunderstorm Light Rain
3:36 PM - - - N/A% 29.77 in 7.0 mi WSW 4.6 mph - 0.09 in Rain Light Rain
3:53 PM - - - N/A% 29.77 in 3.0 mi WSW 5.8 mph - 0.11 in Rain , Thunderstorm Light Thunderstorms and Rain
4:02 PM - - - N/A% 29.77 in 2.5 mi SSW 4.6 mph - 0.03 in Rain , Thunderstorm Thunderstorms and Rain
4:20 PM - - - N/A% 29.75 in 3.0 mi Calm Calm - 0.07 in Rain , Thunderstorm Rain
4:32 PM - - - N/A% 29.75 in 5.0 mi Calm Calm - 0.07 in Rain Light Rain
4:48 PM - - - N/A% 29.76 in 7.0 mi Calm Calm - 0.07 in Rain Light Rain
4:53 PM - - - N/A% 29.76 in 6.0 mi North 3.5 mph - 0.07 in   Haze
4:57 PM 68.0 °F - 66.2 °F 94% 29.76 in 6.0 mi Calm Calm - N/A   Overcast
5:07 PM 68.0 °F - 66.2 °F 94% 29.76 in 9.0 mi West 4.6 mph - N/A   Mostly Cloudy
5:53 PM 70.0 °F - 64.0 °F 81% 29.74 in 10.0 mi Calm Calm - 0.00 in Rain Light Rain
6:53 PM 68.0 °F - 64.9 °F 90% 29.75 in 10.0 mi Calm Calm - 0.01 in   Scattered Clouds
7:41 PM 66.2 °F - 64.4 °F 94% 29.77 in 8.0 mi Calm Calm - N/A   Mostly Cloudy
7:53 PM 66.9 °F - 64.0 °F 90% 29.75 in 8.0 mi Calm Calm - N/A   Mostly Cloudy
8:10 PM 66.2 °F - 62.6 °F 88% 29.76 in 5.0 mi West 3.5 mph - N/A   Scattered Clouds
8:53 PM 66.0 °F - 64.0 °F 93% 29.74 in 8.0 mi West 3.5 mph - N/A   Mostly Cloudy
9:22 PM 66.2 °F - 64.4 °F 94% 29.75 in 6.0 mi WSW 4.6 mph - 0.00 in Rain Light Rain
9:53 PM 66.0 °F - 64.0 °F 93% 29.75 in 9.0 mi Calm Calm - 0.00 in Rain Light Rain
10:53 PM 64.9 °F - 62.1 °F 90% 29.75 in 10.0 mi West 5.8 mph - 0.01 in Rain Light Rain
11:53 PM 63.0 °F - 60.1 °F 90% 29.75 in 10.0 mi SW 3.5 mph - 0.00 in   Clear